This demonstration page uses our WeatherBlox Daily Observations layout. Learn more.

Left ArrowRight Arrow

34.02893, -84.19858

Hourly Observations for June 25, 2022

Temp ( °F °C ) Dew Point ( °F °C ) Humidity (%) Winds ( mph kmh ) Pressure ( in mb ) Visibility ( mi km ) Precip ( " mm )
12:02 am 00:02 Mostly Cloudy 79 26.1 70 21.1 74 74 SW 12 19 30.00 1016 10 16 0.00 0.00
12:53 am 00:53 Clear 76 24.4 69 20.6 79 79 Calm 29.98 1015 10 16 0.00 0.00
1:53 am 01:53 Clear 76 24.4 69 20.6 79 79 Calm 29.97 1015 10 16 0.00 0.00
2:53 am 02:53 Clear 76 24.4 69 20.6 79 79 Calm 29.98 1015 10 16 0.00 0.00
3:53 am 03:53 Clear 75 23.9 69 20.6 82 82 Calm 29.98 1015 10 16 0.00 0.00
4:53 am 04:53 Clear 74 23.3 69 20.6 85 85 Calm 30.00 1016 10 16 0.00 0.00
5:53 am 05:53 Clear 74 23.3 69 20.6 85 85 Calm 30.01 1016 10 16 0.00 0.00
6:09 am 06:09 Mostly Cloudy 73 22.8 69 20.6 87 87 VRB 3 6 30.04 1017 10 16 0.00 0.00
6:35 am 06:35 Partly Cloudy 73 22.8 69 20.6 87 87 VRB 3 6 30.05 1018 10 16 0.00 0.00
6:42 am 06:42 Mostly Cloudy 73 22.8 69 20.6 87 87 VRB 5 7 30.05 1018 10 16 0.00 0.00
6:53 am 06:53 Mostly Cloudy 74 23.3 69 20.6 85 85 VRB 3 6 30.04 1017 10 16 0.00 0.00
7:53 am 07:53 Cloudy 75 23.9 70 21.1 84 84 Calm 30.06 1018 10 16 0.00 0.00
8:53 am 08:53 Mostly Cloudy 75 23.9 69 20.6 82 82 SSE 5 7 30.08 1019 10 16 0.00 0.00
9:48 am 09:48 Partly Cloudy 79 26 70 21 74 74 VRB 3 6 30.10 1019 10 16 0.00 0.00
9:53 am 09:53 Mostly Sunny 78 25.6 68 20 71 71 SE 8 13 30.09 1019 10 16 0.00 0.00
10:53 am 10:53 Sunny 81 27.2 67 19.4 62 62 SSE 7 11 30.09 1019 10 16 0.00 0.00
11:53 am 11:53 Sunny 85 29.4 66 18.9 53 53 VRB 6 9 30.08 1019 10 16 0.00 0.00
12:53 pm 12:53 Mostly Cloudy 88 31.1 65 18.3 46 46 SE 8 13 30.07 1018 10 16 0.00 0.00
1:53 pm 13:53 Partly Cloudy 89 31.7 64 17.8 43 43 SE 6 9 30.05 1018 10 16 0.00 0.00
2:53 pm 14:53 Partly Cloudy 90 32.2 63 17.2 41 41 VRB 6 9 30.03 1017 10 16 0.00 0.00
3:53 pm 15:53 Partly Cloudy 91 32.8 62 16.7 38 38 VRB 5 7 30.00 1016 10 16 0.00 0.00
4:53 pm 16:53 Cloudy 89 31.7 63 17.2 42 42 VRB 5 7 30.00 1016 10 16 0.00 0.00
5:53 pm 17:53 Partly Cloudy 89 31.7 63 17.2 42 42 Calm 30.01 1016 10 16 0.00 0.00
6:53 pm 18:53 Sunny 89 31.7 61 16.1 39 39 SSE 5 7 30.01 1016 10 16 0.00 0.00
7:53 pm 19:53 Sunny 87 30.6 61 16.1 42 42 Calm 30.02 1017 10 16 0.00 0.00
8:53 pm 20:53 Mostly Clear 86 30 61 16.1 43 43 ESE 3 6 30.03 1017 10 16 0.00 0.00
9:53 pm 21:53 Clear 84 28.9 62 16.7 48 48 E 3 6 30.04 1017 10 16 0.00 0.00
10:53 pm 22:53 Mostly Clear 84 28.9 63 17.2 49 49 VRB 3 6 30.07 1018 10 16 0.00 0.00
11:53 pm 23:53 Clear 81 27.2 67 19.4 62 62 VRB 3 6 30.06 1018 10 16 0.00 0.00

Powered by AerisWeather